Location: Newark
(32.8014°N, 52.8711°E)
Time: 01:12:00
(UTC+00:00)

Envisat - Pass Details

Date: 24 January 2020
Orbit: 764 x 766 km, 98.1° (Epoch: 27 February)

Event Time Altitude Azimuth Distance (km) Brightness Sun altitude
Rises 14:40:38 0° 176° (S) 3,216 6.4 -10.3°
Reaches altitude 10° 14:42:58 10° 179° (S) 2,294 5.7 -10.8°
Maximum altitude 14:47:57 60° 259° (W) 876 3.7 -11.8°
Drops below altitude 10° 14:52:58 10° 339° (NNW) 2,307 5.6 -12.8°
Sets 14:55:19 0° 344° (NNW) 3,237 6.3 -13.3°
